This demonstration page uses our WeatherBlox Daily Observations layout. Learn more.

Left ArrowRight Arrow

40.92945, -100.16068

Hourly Observations for April 2, 2020

Temp ( °F °C ) Dew Point ( °F °C ) Humidity (%) Winds ( mph kmh ) Pressure ( in mb ) Visibility ( mi km ) Precip ( " mm )
12:15 am 00:15 Clear 47 8.2 43 6.3 88 88 NNE 17 28 29.75 1007 10 16 0.00 0.00
12:35 am 00:35 Clear 45 7.4 42 5.6 88 88 NNE 16 26 29.76 1008 10 16 0.00 0.00
12:55 am 00:55 Clear 44 6.9 42 5.4 90 90 NNE 18 30 29.76 1008 10 16 0.00 0.00
1:15 am 01:15 Partly Cloudy 43 6 40 4.6 91 91 NNE 20 31 29.77 1008 10 16 0.00 0.00
1:35 am 01:35 Cloudy 42 5.5 40 4.2 91 91 NNE 17 28 29.78 1009 10 16 0.00 0.00
1:55 am 01:55 Cloudy 41 5 38 3.6 91 91 NNE 18 30 29.80 1009 10 16 0.00 0.00
2:15 am 02:15 Cloudy 40 4.4 38 3.1 91 91 NNE 17 28 29.81 1010 10 16 0.00 0.00
2:35 am 02:35 Cloudy 39 4 37 2.7 91 91 NNE 20 31 29.83 1010 7 11 0.00 0.00
2:55 am 02:55 Cloudy 37 3 35 1.9 93 93 NNE 18 30 29.85 1011 10 16 0.00 0.00
3:15 am 03:15 Cloudy 36 2.4 35 1.5 94 94 N 17 28 29.85 1011 7 11 0.00 0.00
3:35 am 03:35 Cloudy 36 2.2 35 1.5 95 95 N 15 24 29.85 1011 7 11 0.00 0.00
3:55 am 03:55 Cloudy 36 2 34 1.1 94 94 N 20 31 29.86 1011 10 16 0.00 0.00
4:15 am 04:15 Cloudy 34 1.1 33 0.3 94 94 NNE 18 30 29.87 1011 10 16 0.00 0.00
4:35 am 04:35 Cloudy 33 0.8 32 0.1 95 95 N 15 24 29.88 1012 10 16 0.00 0.00
4:55 am 04:55 Cloudy 32 0.2 32 -0.1 98 98 N 21 33 29.88 1012 7 11 0.00 0.00
5:15 am 05:15 Cloudy 32 -0.1 31 -0.6 96 96 N 18 30 29.90 1012 7 11 0.00 0.00
5:35 am 05:35 Cloudy with Mist and Fog 31 -0.5 30 -1 96 96 NNE 17 28 29.90 1013 5 8 0.00 0.00
5:55 am 05:55 Cloudy with Mist and Fog 31 -0.8 30 -1.3 96 96 N 18 30 29.91 1013 4 6 0.00 0.00
6:15 am 06:15 Cloudy with Light Wintry Mix 30 -1 29 -1.6 96 96 N 15 24 29.94 1014 4 6 0.00 0.00
6:35 am 06:35 Cloudy with Light Wintry Mix 30 -1.2 29 -1.9 95 95 N 21 33 29.94 1014 3 5 0.00 0.00
6:55 am 06:55 Cloudy with Mist and Fog 29 -1.5 28 -2 96 96 N 18 30 29.95 1014 3 5 0.00 0.00
7:15 am 07:15 Cloudy with Mist and Fog 28 -2 27 -2.7 95 95 N 18 30 29.97 1015 4 6 0.00 0.00
7:35 am 07:35 Cloudy with Mist and Fog 28 -2.1 27 -2.6 96 96 N 18 30 29.99 1015 4 6 0.00 0.00
7:55 am 07:55 Cloudy with Mist and Fog 28 -2.5 26 -3.1 96 96 N 17 28 30.01 1016 3 5 0.00 0.00
8:15 am 08:15 Cloudy with Mist and Fog 28 -2.5 26 -3.2 95 95 N 18 30 30.02 1017 3 4 0.00 0.00
8:35 am 08:35 Cloudy with Light Snow 27 -2.8 25 -3.7 94 94 N 18 30 30.02 1017 3 4 0.00 0.00
8:55 am 08:55 Cloudy with Mist and Fog 27 -2.8 26 -3.5 95 95 N 16 26 30.02 1017 2 3 0.00 0.00
9:15 am 09:15 Cloudy with Mist and Fog 27 -3 25 -3.7 95 95 N 16 26 30.04 1017 2 3 0.00 0.00
9:35 am 09:35 Cloudy with Mist and Fog 27 -3 25 -3.7 95 95 N 13 20 30.05 1017 3 4 0.00 0.00
9:55 am 09:55 Cloudy with Mist and Fog 27 -2.9 26 -3.6 95 95 N 16 26 30.05 1017 3 4 0.00 0.00
10:15 am 10:15 Cloudy with Mist and Fog 26 -3.1 25 -3.9 94 94 N 15 24 30.05 1018 3 5 0.00 0.00
10:35 am 10:35 Cloudy with Mist and Fog 26 -3.5 24 -4.4 94 94 N 15 24 30.06 1018 3 4 0.00 0.00
10:55 am 10:55 Cloudy with Mist and Fog 25 -3.7 24 -4.6 94 94 N 20 31 30.08 1019 3 4 0.00 0.00
11:15 am 11:15 Cloudy with Mist and Fog 25 -4.1 23 -5 94 94 NNW 20 31 30.09 1019 3 4 0.00 0.00
11:35 am 11:35 Cloudy with Mist and Fog 24 -4.5 22 -5.3 94 94 N 17 28 30.10 1019 3 4 0.00 0.00
11:55 am 11:55 Cloudy with Mist and Fog 24 -4.2 23 -5.1 94 94 N 17 28 30.11 1020 2 3 0.00 0.00
12:15 pm 12:15 Cloudy with Mist and Fog 24 -4.4 22 -5.5 92 92 NNW 21 33 30.11 1020 2 3 0.00 0.00
12:35 pm 12:35 Cloudy with Mist and Fog 24 -4.5 22 -5.4 94 94 N 17 28 30.12 1020 3 4 0.00 0.00
12:55 pm 12:55 Cloudy with Mist and Fog 24 -4.6 22 -5.6 93 93 N 16 26 30.12 1020 3 5 0.00 0.00
1:15 pm 13:15 Cloudy with Mist and Fog 24 -4.7 22 -5.7 93 93 N 17 28 30.12 1020 3 5 0.00 0.00
1:35 pm 13:35 Cloudy with Mist and Fog 23 -4.8 21 -6 91 91 N 17 28 30.13 1020 4 6 0.00 0.00
1:55 pm 13:55 Cloudy with Mist and Fog 23 -5 21 -6.3 91 91 N 20 31 30.13 1020 4 6 0.00 0.00
2:15 pm 14:15 Cloudy with Mist and Fog 23 -5 21 -6.3 91 91 N 17 28 30.14 1021 5 8 0.00 0.00
2:35 pm 14:35 Cloudy 24 -4.6 22 -5.8 91 91 N 15 24 30.12 1020 7 11 0.00 0.00
2:55 pm 14:55 Cloudy 24 -4.7 21 -6.3 89 89 N 18 30 30.13 1020 10 16 0.00 0.00
3:15 pm 15:15 Cloudy 24 -4.6 21 -6 90 90 N 15 24 30.14 1021 10 16 0.00 0.00
3:35 pm 15:35 Cloudy 24 -4.4 21 -6 89 89 N 16 26 30.14 1021 10 16 0.00 0.00
8:35 pm 20:35 Cloudy 22 -5.7 18 -7.7 86 86 NNW 16 26 30.27 1025 10 16 0.00 0.00
8:55 pm 20:55 Cloudy 22 -5.7 18 -7.8 85 85 NNW 17 28 30.27 1025 10 16 0.00 0.00
9:15 pm 21:15 Cloudy 22 -5.7 18 -8 84 84 NNW 18 30 30.29 1026 10 16 0.00 0.00
9:35 pm 21:35 Cloudy 22 -5.7 18 -8 84 84 NNW 16 26 30.31 1026 10 16 0.00 0.00
9:55 pm 21:55 Cloudy 22 -5.8 17 -8.1 84 84 NNW 18 30 30.32 1027 10 16 0.00 0.00
10:10 pm 22:10 Cloudy 21 -6 17 -8.1 85 85 N 16 26 30.33 1027 10 16 0.00 0.00
10:35 pm 22:35 Cloudy 21 -6 17 -8.3 84 84 N 18 30 30.32 1027 10 16 0.00 0.00
10:55 pm 22:55 Cloudy 21 -6 17 -8.2 85 85 N 15 24 30.32 1027 10 16 0.00 0.00
11:15 pm 23:15 Cloudy 21 -6.1 17 -8.2 85 85 NNW 17 28 30.33 1027 10 16 0.00 0.00
11:35 pm 23:35 Cloudy 21 -6.2 17 -8.5 84 84 N 18 30 30.31 1026 10 16 0.00 0.00
11:55 pm 23:55 Cloudy 21 -6.1 17 -8.2 85 85 N 16 26 30.33 1027 10 16 0.00 0.00

Powered by AerisWeather